Weather History for KPSM - January, 2014

Change the Weather History Date:

Saturday, January 4, 2014

  Actual Average Record
Temperature  
Mean Temperature 9 °F -  
Max Temperature 22 °F 33 °F 56 °F (1993)
Min Temperature -4 °F 19 °F -5 °F (1981)
Degree Days  
Heating Degree Days 56    
Moisture  
Dew Point -7 °F    
Average Humidity 45    
Maximum Humidity 59    
Minimum Humidity 26    
Precipitation  
Precipitation 0.00 in - - ()
Snow  
Snow 0.00 in - - ()
Snow Depth 11.00 in    
Sea Level Pressure  
Sea Level Pressure 30.36 in    
Wind  
Wind Speed 7 mph (SW)    
Max Wind Speed 12 mph    
Max Gust Speed -    
Visibility 10 miles    
Events      
Averages and records for this station are not official NWS values.
T = Trace of Precipitation, MM = Missing Value Source: NWS Daily Summary

Daily Weather History Graph

Daily Weather History Graph

Search for Another Location

Airport or City:

Trip Planner

Search our weather history database for the weather conditions in past years. The results will help you decide how hot, cold, wet, or windy it might be!

Date:

Astronomy

Jan. 04, 2014 Rise Set
Actual Time 7:14 AM EST 4:21 PM EST
Civil Twilight 6:42 AM EST 4:54 PM EST
Nautical Twilight 6:07 AM EST 5:29 PM EST
Astronomical Twilight 5:32 AM EST 6:04 PM EST
Moon 9:12 AM EST (1/4) 8:45 PM EST (1/4)
Length of Visible Light 10h 11m
Length of Day
9h 06m
Waxing Crescent, 15% of the Moon is Illuminated
Jan 4
Waxing Crescent
Jan 7
First Quarter
Jan 15
Full
Jan 24
Last Quarter
Jan 30
New

Hourly Weather History & Observations

Time (EST) Temp. Windchill Dew Point Humidity Pressure Visibility Wind Dir Wind Speed Gust Speed Precip Events Conditions
12:58 AM -3.3 °F -15.4 °F -16.4 °F 53% 30.40 in 10.0 mi West 5.8 mph - N/A   Clear
1:58 AM -3.6 °F -17.3 °F -14.8 °F 59% 30.41 in 10.0 mi West 6.9 mph - N/A   Clear
2:58 AM -3.5 °F -13.9 °F -16.6 °F 53% 30.43 in 10.0 mi West 4.6 mph - N/A   Clear
3:58 AM -3.8 °F -16.1 °F -16.6 °F 54% 30.41 in 10.0 mi WSW 5.8 mph - N/A   Clear
4:58 AM -3.3 °F -13.7 °F -15.7 °F 55% 30.42 in 10.0 mi WSW 4.6 mph - N/A   Partly Cloudy
5:58 AM -4.5 °F - -15.5 °F 59% 30.42 in 10.0 mi South 2.3 mph - N/A   Mostly Cloudy
6:58 AM -2.6 °F -17.3 °F -14.3 °F 57% 30.45 in 10.0 mi West 8.1 mph - N/A   Mostly Cloudy
7:58 AM -0.0 °F -13.0 °F -13.7 °F 53% 30.48 in 10.0 mi WSW 6.9 mph - N/A   Mostly Cloudy
8:58 AM 2.3 °F -8.8 °F -12.6 °F 50% 30.49 in 10.0 mi WSW 5.8 mph - N/A   Mostly Cloudy
9:58 AM 5.2 °F - -12.3 °F 45% 30.48 in 10.0 mi South 2.3 mph - N/A   Scattered Clouds
10:58 AM 11.8 °F 1.3 °F -10.7 °F 36% 30.43 in 10.0 mi SW 6.9 mph - N/A   Partly Cloudy
11:58 AM 16.5 °F 3.6 °F -9.8 °F 31% 30.39 in 10.0 mi SW 11.5 mph - N/A   Partly Cloudy
12:58 PM 18.5 °F 6.8 °F -9.6 °F 28% 30.34 in 10.0 mi SW 10.4 mph - N/A   Scattered Clouds
1:58 PM 21.2 °F 9.5 °F -9.0 °F 26% 30.31 in 10.0 mi SSW 11.5 mph - N/A   Mostly Cloudy
2:58 PM 22.8 °F 15.5 °F -7.2 °F 27% 30.31 in 10.0 mi SSW 5.8 mph - N/A   Mostly Cloudy
3:58 PM 22.6 °F 12.6 °F -7.4 °F 27% 30.30 in 10.0 mi South 9.2 mph - N/A   Mostly Cloudy
4:58 PM 22.5 °F 14.1 °F -2.7 °F 33% 30.29 in 10.0 mi South 6.9 mph - N/A   Mostly Cloudy
5:58 PM 20.8 °F 12.1 °F 1.8 °F 44% 30.28 in 10.0 mi South 6.9 mph - N/A   Mostly Cloudy
6:58 PM 21.2 °F 10.9 °F 4.1 °F 48% 30.26 in 10.0 mi SSW 9.2 mph - N/A   Mostly Cloudy
7:58 PM 21.7 °F 10.8 °F 6.3 °F 51% 30.25 in 10.0 mi SW 10.4 mph - N/A   Mostly Cloudy
8:58 PM 22.5 °F 11.7 °F 6.8 °F 51% 30.24 in 10.0 mi SW 10.4 mph - N/A   Scattered Clouds
9:58 PM 21.7 °F 11.5 °F 6.3 °F 51% 30.25 in 10.0 mi SW 9.2 mph - N/A   Scattered Clouds
10:58 PM 20.7 °F 15.8 °F 4.6 °F 50% 30.24 in 10.0 mi WSW 3.5 mph - N/A   Scattered Clouds
11:58 PM 20.3 °F 15.4 °F 4.1 °F 50% 30.25 in 10.0 mi West 3.5 mph - N/A   Partly Cloudy